Time,TemperatureF,DewpointF,PressureIn,WindDirection,WindDirectionDegrees,WindSpeedMPH,WindSpeedGustMPH,Humidity,HourlyPrecipIn,Conditions,Clouds,dailyrainin,SoftwareType,DateUTC
2013-05-22 00:00:00,52.0,32.9,24.02,North,0,0.0,-999.0,48,0.00,,,0.00,,2013-05-22 07:00:00,
2013-05-22 01:00:00,50.4,33.5,24.01,North,0,0.0,-999.0,52,0.00,,,0.00,,2013-05-22 08:00:00,
2013-05-22 02:00:00,50.9,32.5,23.99,North,0,0.0,-999.0,49,0.00,,,0.00,,2013-05-22 09:00:00,
2013-05-22 03:00:00,51.1,31.5,23.98,North,0,0.0,-999.0,47,0.00,,,0.00,,2013-05-22 10:00:00,
2013-05-22 04:00:00,47.2,31.3,23.96,North,0,0.0,-999.0,54,0.00,,,0.00,,2013-05-22 11:00:00,
2013-05-22 05:00:00,45.2,31.7,23.95,North,0,0.0,-999.0,59,0.00,,,0.00,,2013-05-22 12:00:00,
2013-05-22 06:00:00,42.1,32.3,23.95,North,0,0.0,-999.0,68,0.00,,,0.00,,2013-05-22 13:00:00,
2013-05-22 07:05:00,40.9,32.2,23.95,North,0,0.0,-999.0,71,0.00,,,0.00,,2013-05-22 14:05:00,
2013-05-22 08:05:00,44.3,31.7,23.96,North,0,0.0,-999.0,61,0.00,,,0.00,,2013-05-22 15:05:00,
2013-05-22 09:05:00,53.3,34.0,0.00,North,0,0.0,-999.0,48,0.00,,,0.00,,2013-05-22 16:05:00,
2013-05-22 10:05:00,50.4,33.5,0.00,North,0,0.0,-999.0,52,0.00,,,0.00,,2013-05-22 17:05:00,
2013-05-22 11:05:00,49.9,34.3,0.00,North,0,0.0,-999.0,55,0.00,,,0.00,,2013-05-22 18:05:00,
2013-05-22 13:05:00,51.1,35.9,0.00,North,0,0.0,-999.0,56,0.00,,,0.00,,2013-05-22 20:05:00,
2013-05-22 14:05:00,50.9,35.3,0.00,North,0,0.0,-999.0,55,0.00,,,0.00,,2013-05-22 21:05:00,
2013-05-22 15:05:00,51.3,33.9,0.00,North,0,0.0,-999.0,51,0.00,,,0.00,,2013-05-22 22:05:00,
2013-05-22 18:00:00,47.3,33.8,23.93,North,0,0.0,-999.0,59,0.00,,,0.00,,2013-05-23 01:00:00,
2013-05-22 19:00:00,44.8,32.9,23.93,North,0,0.0,-999.0,63,0.00,,,0.00,,2013-05-23 02:00:00,
2013-05-22 20:00:00,42.8,31.1,23.94,North,0,0.0,-999.0,63,0.00,,,0.00,,2013-05-23 03:00:00,
2013-05-22 21:00:00,41.4,28.2,23.95,North,0,0.0,-999.0,59,0.00,,,0.00,,2013-05-23 04:00:00,
2013-05-22 22:00:00,41.4,29.7,23.95,North,0,0.0,-999.0,63,0.00,,,0.00,,2013-05-23 05:00:00,
2013-05-22 23:00:00,41.8,30.4,23.94,North,0,0.0,-999.0,64,0.00,,,0.00,,2013-05-23 06:00:00,